Helicity
137 145 124 135 123 118 121 110 109 117 111 80 74 73 79 76 73 76 98 64 48 44 30 28 43 41 47 51 42 30 30 10
182 164 156 143 132 108 124 133 117 119 102 87 82 75 84 85 85 78 82 55 46 44 24 21 38 43 35 30 34 23 23 14
162 180 177 144 125 122 144 137 124 125 107 86 89 72 72 92 77 84 75 58 44 43 41 28 39 43 35 30 16 -2 21 7
141 167 191 175 117 149 145 141 126 126 97 67 72 75 69 86 89 88 71 54 43 56 59 54 22 4 16 24 -6 9 10 -1
174 178 191 192 182 183 176 190 138 118 76 68 78 83 80 104 107 112 96 72 33 36 30 19 12 10 16 23 7 13 8 -13
198 198 211 187 222 206 198 206 151 104 83 69 87 85 82 96 115 120 84 54 40 22 9 12 6 3 22 28 20 16 3 -17
195 216 218 227 215 225 230 206 139 98 88 76 81 94 82 83 101 105 64 42 29 20 17 13 17 13 14 29 25 15 2 -14
236 228 207 232 247 214 222 202 154 97 87 73 76 81 80 78 90 92 65 44 32 17 22 29 23 28 14 15 22 18 10 4
212 226 238 245 245 240 236 189 160 89 83 78 78 67 67 76 82 63 63 61 39 21 61 70 55 24 15 10 17 18 12 13
195 239 231 262 251 249 231 189 155 105 91 82 74 58 56 73 69 43 63 82 61 74 103 87 62 37 13 8 10 13 16 20
226 244 277 298 250 241 219 179 157 120 108 86 64 65 68 78 54 62 83 83 79 82 87 104 70 31 16 6 4 10 18 25
232 258 288 331 312 260 228 187 156 142 101 87 100 79 78 84 67 84 108 97 89 99 108 101 78 75 56 29 7 -4 6 18
239 301 336 394 351 266 243 219 191 131 91 98 102 90 86 84 79 87 106 105 89 107 129 118 115 118 125 66 28 -1 -1 -0
270 313 370 354 304 243 225 192 155 127 92 89 74 83 90 94 99 98 101 113 106 142 143 134 109 132 122 108 38 28 19 22
280 353 363 356 305 253 269 214 158 112 77 70 46 61 86 101 103 107 125 130 132 152 166 161 167 125 112 89 53 30 41 58
113 191 319 323 319 267 276 244 139 84 89 62 28 63 78 75 101 119 141 151 137 177 197 182 201 182 128 83 78 50 33 37
280 147 318 281 312 255 202 216 164 123 139 52 58 81 90 145 151 144 155 182 165 158 186 185 207 234 218 198 147 107 83 70
498 249 180 252 278 298 225 153 172 186 154 94 116 142 129 119 136 152 167 186 210 189 197 194 177 193 217 222 222 146 140 134
592 548 398 258 140 176 293 238 196 69 99 128 127 176 142 109 173 130 159 196 192 193 207 201 211 182 207 211 216 225 230 179
662 661 539 471 344 289 184 150 83 96 60 148 180 182 177 184 168 147 152 178 204 200 190 200 215 192 167 166 204 220 234 213
Wind_Speed
32 32 26 25 19 25 26 23 22 22 20 18 22 24 27 28 29 32 36 41 45 48 51 50 48 47 48 48 48 46 48 50
14 25 27 27 25 28 26 20 20 20 18 18 19 21 23 25 27 28 33 38 44 48 50 50 48 47 47 47 45 41 43 46
15 15 22 22 20 26 23 22 18 16 14 16 15 16 19 20 23 26 30 36 41 44 47 49 48 46 45 45 43 39 39 41
14 16 12 17 19 19 14 16 11 9 11 11 12 14 15 16 20 22 28 33 37 42 44 47 47 44 43 44 42 38 35 37
20 22 15 12 13 11 10 3 3 8 9 8 11 12 10 11 13 15 19 27 32 37 39 43 45 45 43 42 43 37 33 31
20 19 16 13 16 8 4 4 3 5 9 9 12 11 9 9 12 12 15 23 31 34 37 40 42 43 42 41 40 37 32 31
23 22 18 15 13 18 12 8 6 3 8 9 10 8 9 9 12 12 15 20 27 31 34 36 39 40 39 40 39 38 32 28
20 23 23 20 18 16 16 11 8 9 3 8 7 6 7 11 12 12 12 15 20 26 31 33 35 37 37 37 38 36 34 27
21 23 23 26 24 21 22 20 15 12 8 3 4 5 6 9 12 13 10 10 11 15 22 26 30 32 34 34 35 35 33 28
18 21 23 29 34 29 27 21 17 13 14 7 4 2 5 6 11 16 5 2 5 10 16 21 25 28 31 31 30 31 31 28
20 23 24 24 30 41 33 24 21 18 15 11 7 4 4 7 9 8 5 9 8 6 9 16 21 22 25 26 26 25 26 26
25 24 25 28 32 31 38 30 27 22 18 16 13 12 5 7 9 8 9 14 16 6 4 5 10 15 16 18 19 19 19 20
32 30 30 33 35 32 33 27 26 27 28 23 17 14 10 8 9 9 12 12 14 9 12 2 8 8 14 19 17 12 13 15
41 36 35 37 40 38 40 37 37 35 30 25 23 18 14 12 12 10 10 14 16 12 12 15 18 1 16 20 28 25 3 11
49 42 40 40 42 42 46 42 46 35 32 29 28 27 27 18 16 14 12 12 14 12 11 11 14 7 16 23 29 30 31 20
67 66 50 46 44 45 46 47 47 44 48 37 29 24 21 21 23 24 18 19 19 14 12 11 17 15 21 23 33 31 34 39
63 62 52 51 53 54 52 55 53 60 48 39 30 26 24 23 24 25 30 22 21 18 18 17 19 21 21 28 26 34 38 42
55 55 55 49 48 50 54 53 52 58 43 42 39 34 27 23 22 21 21 22 23 23 23 23 24 24 21 26 25 30 31 29
52 48 44 48 51 52 55 53 66 70 62 49 43 39 33 27 25 26 24 19 16 17 25 26 25 22 25 22 29 31 34 37
47 47 41 38 43 48 51 56 49 70 66 65 50 44 41 35 30 27 23 21 19 18 18 22 23 27 33 30 23 39 43 43
Wind_Direction
118 120 118 115 110 110 108 102 97 90 76 63 68 70 68 66 62 68 77 80 82 83 86 84 78 74 75 69 69 64 67 69
141 120 119 118 113 114 110 103 99 91 78 67 64 65 66 66 66 69 78 81 84 86 86 86 81 78 75 72 68 60 64 64
210 140 124 119 118 117 109 107 100 90 74 67 58 52 59 58 64 72 81 86 87 85 86 89 86 80 76 73 66 60 61 61
173 212 152 129 123 119 114 110 97 82 75 58 51 52 54 56 64 70 85 89 89 87 85 87 90 86 79 76 69 63 56 60
169 219 209 159 137 134 121 128 115 92 78 48 60 58 37 47 51 58 71 85 87 86 83 87 91 93 86 80 79 65 54 50
193 186 190 201 229 172 168 216 221 115 93 78 86 71 56 62 72 70 75 86 92 89 87 88 90 92 92 84 80 73 59 55
208 207 200 206 195 238 235 232 229 173 113 97 94 81 81 84 94 89 91 90 95 92 89 90 93 94 91 89 84 81 66 58
197 207 216 221 216 232 237 239 231 256 216 115 99 87 92 108 113 111 104 91 90 95 97 97 94 95 95 95 91 84 76 57
195 189 210 224 228 235 245 246 246 250 248 228 117 100 101 120 128 131 122 102 78 68 92 94 93 94 98 99 97 93 86 70
203 199 181 221 236 242 244 243 244 245 255 248 238 128 107 134 139 139 150 106 12 60 91 96 97 99 104 101 97 97 96 86
207 210 201 199 229 244 247 243 245 249 249 241 220 191 147 157 165 167 204 279 311 33 71 101 104 96 103 102 99 98 101 99
227 228 226 219 236 242 247 248 247 250 246 244 242 253 230 178 192 214 245 273 286 317 83 52 79 90 71 79 86 94 100 110
236 235 232 228 226 226 237 225 237 247 254 251 241 240 239 209 203 225 256 268 280 289 291 301 332 7 9 357 11 87 119 134
249 239 235 227 234 231 244 242 246 252 253 250 243 232 231 228 221 216 234 270 276 268 270 287 302 11 334 343 338 342 95 166
249 244 238 231 234 237 246 245 250 245 247 246 243 244 248 236 239 236 233 255 267 245 252 263 289 274 316 329 333 335 344 354
254 253 246 239 234 232 233 240 240 246 249 250 243 229 228 238 251 256 252 265 269 249 218 238 282 276 295 303 312 330 335 333
267 254 244 244 239 238 238 244 245 247 247 246 236 231 226 228 243 253 263 264 265 260 254 245 264 279 277 299 303 310 313 315
271 261 250 246 239 237 232 236 248 247 239 238 241 241 232 217 203 226 250 260 261 263 259 257 263 273 274 284 289 305 308 313
272 270 260 253 249 249 244 248 249 247 247 246 241 243 240 230 222 198 200 212 233 242 261 262 260 247 267 266 281 283 295 303
272 269 265 264 263 266 265 260 262 251 253 252 250 251 249 247 239 241 238 244 247 247 235 249 247 226 220 225 256 288 290 290